Location: Lake of the Woods (North-East)
(49.6672°N, 94.8656°W)
Time: 14:33:56
(UTC-06:00)

ISS - All Passes

Search period start: 24 November 2017 00:00
Search period end: 04 December 2017 00:00
Orbit: 401 x 407 km, 51.6° (Epoch: 25 November)

Date Brightness Start Highest point End Pass type
(mag) Time Alt. Az. Time Alt. Az. Time Alt. Az.
24 Nov - 00:58:09 10° WNW 01:01:27 84° SSW 01:04:43 10° ESE night (unlit)
24 Nov - 02:35:02 10° W 02:37:36 21° SW 02:40:07 10° SSE night (unlit)
24 Nov - 19:18:43 10° SSE 19:20:02 12° SE 19:21:20 10° ESE night (unlit)
24 Nov - 20:52:44 10° SW 20:55:56 54° SSE 20:59:09 10° ENE night (unlit)
24 Nov - 22:29:10 10° W 22:32:25 62° N 22:35:41 10° ENE night (unlit)
25 Nov - 00:05:48 10° WNW 00:09:05 75° NNE 00:12:21 10° E night (unlit)
25 Nov - 01:42:25 10° W 01:45:24 33° SSW 01:48:23 10° SSE night (unlit)
25 Nov - 20:00:38 10° SW 20:03:40 35° SSE 20:06:41 10° E night (unlit)
25 Nov - 21:36:44 10° W 21:40:01 73° NNW 21:43:18 10° ENE night (unlit)
25 Nov - 23:13:25 10° WNW 23:16:41 63° N 23:19:56 10° E night (unlit)
26 Nov - 00:49:58 10° WNW 00:53:09 51° SSW 00:56:20 10° SE night (unlit)
26 Nov - 02:28:03 10° WSW 02:29:01 11° SW 02:29:59 10° SSW night (unlit)
26 Nov - 19:08:49 10° SSW 19:11:27 22° SE 19:14:06 10° E visible
26 Nov - 20:44:20 10° WSW 20:47:37 87° SSE 20:50:55 10° ENE night (unlit)
26 Nov - 22:20:59 10° W 22:24:15 58° N 22:27:29 10° E night (unlit)
26 Nov - 23:57:33 10° WNW 00:00:49 76° SSW 00:04:05 10° ESE night (unlit)
27 Nov - 01:34:35 10° W 01:36:54 18° SW 01:39:13 10° S night (unlit)
27 Nov - 18:17:28 10° S 18:19:17 14° SE 18:21:07 10° ESE visible
27 Nov - 19:52:01 10° WSW 19:55:16 62° SSE 19:58:31 10° ENE visible
27 Nov - 21:28:32 10° W 21:31:47 60° N 21:35:02 10° ENE night (unlit)
27 Nov - 23:05:09 10° WNW 23:08:26 81° NNE 23:11:43 10° ESE night (unlit)
28 Nov - 00:41:49 10° W 00:44:42 28° SW 00:47:33 10° SSE night (unlit)
28 Nov - 18:59:50 10° SW 19:02:56 40° SSE 19:06:03 10° E visible
28 Nov - 20:36:03 10° W 20:39:20 68° N 20:42:36 10° ENE night (unlit)
28 Nov - 22:12:44 10° WNW 22:16:00 66° N 22:19:16 10° E night (unlit)
28 Nov - 23:49:17 10° WNW 23:52:26 44° SSW 23:55:33 10° SE night (unlit)
29 Nov - 18:07:52 10° SSW 18:10:40 26° SE 18:13:28 10° E visible
29 Nov - 19:43:36 10° WSW 19:46:54 85° NNW 19:50:11 10° ENE visible
29 Nov - 21:20:17 10° WNW 21:23:32 59° N 21:26:47 10° E night (unlit)
29 Nov - 22:56:49 10° WNW 23:00:05 67° SSW 23:03:20 10° ESE night (unlit)
30 Nov - 00:34:03 10° W 00:36:05 15° SW 00:38:06 10° S night (unlit)
30 Nov - 17:16:15 10° S 17:18:26 17° SE 17:20:38 10° E visible
30 Nov - 18:51:13 10° WSW 18:54:28 71° SSE 18:57:45 10° ENE visible
30 Nov - 20:27:47 10° W 20:31:02 59° N 20:34:17 10° ENE visible
30 Nov - 22:04:23 10° WNW 22:07:40 88° NNE 22:10:56 10° ESE night (unlit)
30 Nov - 23:41:08 10° W 23:43:52 24° SW 23:46:35 10° SSE night (unlit)
01 Dec - 17:58:56 10° SW 18:02:06 47° SSE 18:05:16 10° ENE visible
01 Dec - 19:35:16 10° W 19:38:33 65° N 19:41:49 10° ENE visible
01 Dec - 21:11:55 10° WNW 21:15:13 70° NNE 21:18:29 10° E night (unlit)
01 Dec - 22:48:30 10° W 22:51:35 38° SSW 22:54:39 10° SE night (unlit)
02 Dec - 17:06:50 10° SSW 17:09:46 30° SSE 17:12:42 10° E visible
02 Dec - 18:42:46 10° WSW 18:46:04 78° NNW 18:49:20 10° ENE visible
02 Dec - 20:19:27 10° WNW 20:22:42 61° N 20:25:58 10° E visible
02 Dec - 21:55:58 10° WNW 21:59:13 59° SSW 22:02:26 10° SE night (unlit)
02 Dec - 23:33:32 10° WSW 23:35:09 13° SW 23:36:45 10° SSW night (unlit)
03 Dec - 16:15:03 10° S 16:17:29 19° SE 16:19:56 10° E daylight
03 Dec - 17:50:18 10° WSW 17:53:35 79° SSE 17:56:53 10° ENE visible
03 Dec - 19:26:56 10° W 19:30:11 58° N 19:33:26 10° E visible
03 Dec - 21:03:29 10° WNW 21:06:47 84° SSW 21:10:03 10° ESE night (unlit)
03 Dec - 22:40:22 10° W 22:42:54 21° SW 22:45:28 10° SSE night (unlit)
